Aérodrome :
LOGIN :

S'inscrire | Disclaimer

   EN    FR    IT 

 










Légende :    VFR   VFR Marginal   IFR   IFR Intensif   IFR Très Intensif
Visi : 
Plafond : 
>= 8 km
>= 3000ft
5 à 8 km
1000 à 3000 ft
1500m à 5 km
500 à 1000 ft
800 à 1500m
200 à 500 ft
< 800m
< 200 ft
Symboles :   Orages  Brouillard  Fortes neiges  Fortes précipitations  Vent > 20 kt
SIGMETs :   Divers  Orages  Givrage  Turbulence  Onde Orograph.  Cendres Volcan.







- Altitude de l'aérodrome : 1276 ft
- Code IATA : STR


EDDS - Stuttgart

DERNIER METAR :
  • 251520Z 34005KT 310V010 CAVOK 20/08 Q1022 NOSIG

METARs EXPIRÉS :
  • 251450Z 28006KT 210V330 CAVOK 21/09 Q1022 NOSIG
  • 251420Z 02006KT 290V080 CAVOK 20/09 Q1023 NOSIG
  • 251350Z 28003KT 220V330 9999 SCT047 20/09 Q1023 NOSIG
  • 251320Z VRB04KT 9999 SCT047 20/08 Q1023 NOSIG
  • 251250Z VRB04KT 9999 SCT046 19/08 Q1023 NOSIG

TAF TAF EDDS
Valide du 25 à 12h jusqu'au 26 à 12h UTC


251100Z 2512/2612 35005KT 9999 SCT045
BECMG 2518/2521 VRB03KT
BECMG 2606/2609 03005KT
Pas de NOTAMs connus pour ce terrain.



MET'MAP, la Météo Aéronautique d'un coup d'oeil ! - Copyright ORBIFLY Décembre 2007 - Disclaimer

ORBIFLY MET'MAP TEAM :

Programmation & Développement : Alexandra Zaïnal
Conception & Développement : Baudouin d'Aumeries
Co-Programmation & Développement : Marc-Olivier Méhu
Soutien technique & logistique : Manuel Goepfert

Contact : metmap@orbifly.com




SOURCES & CREDITS :

   NOAA